[[{"header":{"parameterUnit":"m.s-1","parameterCategory":1,"la1":30.2991,"la2":30.254,"lo1":-89.0895,"lo2":-89.0444,"dy":0.0017,"dx":0.0017,"nx":28,"ny":28,"refTime":"2025-12-04T09:00:00:Z","depth":0,"parameterNumber":2,"parameterNumberName":"U-component_of_WINDS"},"data":[0,0,0,0,0,0,0,0,0,0,0,0,0,0,0,0,0,0,0,0,0,0,0,0,0,0,0,0,0,0,0,0,0,0,0,0,0,0,0,0,0,0,0,0,0,0,0,0,0,0,0,0,0,0,0,0,0,0,0.9241,0.9241,0,0.9235,0.9235,0.9235,0.9209,0.9209,0.9208,0.9208,0.92,0.92,0.92,0,0,0,0,0,0,0,0,0,0,0,0,0,0.9232,0.9232,0.9241,0.9241,0.9241,0.9235,0.9235,0.9234,0.9209,0.9209,0.9208,0.9207,0.92,0.92,0.92,0,0,0,0,0,0,0,0,0,0,0,0,0,0.9232,0.9232,0.9241,0.9228,0.9226,0.9235,0.9235,0.9234,0.921,0.9209,0.9208,0.9207,0.9199,0.92,0.92,0.9221,0,0,0.9202,0.9202,0,0,0,0,0,0,0,0,0.9232,0.9232,0.923,0.9229,0.9227,0.9222,0.9228,0.923,0.921,0.9216,0.9208,0.9207,0.9208,0.9207,0.9208,0.922,0.922,0.9202,0.9202,0.9202,0.9203,0,0,0,0,0,0,0,0.9232,0.9232,0.9238,0.923,0.9228,0.9222,0.9221,0.9229,0.9217,0.9215,0.9213,0.9213,0.9207,0.9208,0.9208,0.922,0.9202,0.9202,0.9203,0.9203,0.925,0.9251,0,0,0,0,0,0,0.9234,0.9232,0.9239,0.9238,0.9227,0.9223,0.9222,0.9224,0.9217,0.9215,0.9214,0.9212,0.9207,0.9207,0.9207,0.9232,0.9202,0.9203,0.9203,0.9249,0.925,0.9251,0,0,0,0,0,0,0.9234,0.9235,0.9239,0.9235,0.9235,0.9224,0.9227,0.9225,0.9226,0.9215,0.9213,0.9217,0.9207,0.9207,0.9218,0.9231,0.9203,0.9204,0.9248,0.925,0.9251,0.928,0,0,0,0,0,0,0.9233,0.9235,0.9242,0.9235,0.9235,0.925,0.9228,0.9225,0.9227,0.9224,0.9218,0.9216,0.9206,0.9217,0.9219,0.9231,0.9204,0.9247,0.9249,0.925,0.9277,0.9282,0.9286,0,0,0,0,0,0.9233,0.925,0.9243,0.9243,0.9244,0.9251,0.9251,0.9239,0.9228,0.9235,0.9229,0.9216,0.9229,0.9219,0.922,0.9233,0.9246,0.9248,0.925,0.9276,0.9281,0.9285,0,0,0,0,0,0,0.9257,0.9249,0.924,0.9255,0.9254,0.9246,0.9255,0.9245,0.9246,0.9244,0.923,0.9228,0.9242,0.9238,0.9227,0.9253,0.9236,0.9238,0.9254,0.9259,0.9264,0.9264,0.9204,0,0,0,0,0,0.9265,0.9271,0.9262,0.9276,0.9276,0.9266,0.9268,0.926,0.9258,0.9257,0.9251,0.925,0.9254,0.9256,0.9259,0.9277,0.9276,0.9286,0.9291,0.9294,0.9296,0.9307,0.9311,0.9259,0.9259,0.9258,0,0,0.9279,0.9275,0.928,0.9281,0.9279,0.9286,0.9266,0.9273,0.9278,0.9258,0.9269,0.9265,0.9262,0.9277,0.9283,0.9274,0.9311,0.9297,0.93,0.93,0.9309,0.9314,0.9319,0.926,0.926,0.9259,0,0,0.931,0.9307,0.9319,0.9318,0.9315,0.9309,0.9312,0.9306,0.9303,0.9314,0.9299,0.9305,0.9312,0.9311,0.9311,0.9343,0.9332,0.9345,0.9366,0.9376,0.938,0.9384,0.9396,0.94,0.9347,0.9347,0.9347,0,0.9328,0.9337,0.9326,0.9335,0.9337,0.932,0.9332,0.9331,0.933,0.9332,0.9322,0.9331,0.9328,0.9343,0.9351,0.9352,0.9355,0.9345,0.9381,0.9384,0.9387,0.9399,0.9403,0.9349,0.9348,0.9348,0.9348,0,0.9361,0.9368,0.9378,0.9378,0.938,0.9391,0.9382,0.9386,0.9378,0.9372,0.9384,0.938,0.9383,0.9386,0.9377,0.94,0.9395,0.9383,0.9366,0.9394,0.9405,0.9409,0.9351,0.935,0.935,0.9349,0,0,0.9404,0.94,0.9404,0.9404,0.9401,0.9406,0.9417,0.942,0.9424,0.9424,0.9433,0.944,0.943,0.943,0.9422,0.9431,0.9458,0.9418,0.9418,0.9426,0.9484,0.9493,0.9498,0.9451,0.9451,0.9452,0.9484,0,0.9434,0.9451,0.9442,0.9461,0.9468,0.9453,0.9462,0.9462,0.9458,0.9463,0.9458,0.9464,0.9449,0.945,0.9458,0.9453,0.9469,0.945,0.9459,0.9459,0.946,0.9504,0.9513,0.9543,0.9488,0.9489,0.949,0,0.947,0.9473,0.9492,0.949,0.9492,0.9501,0.9504,0.9509,0.9509,0.9505,0.9507,0.9497,0.9507,0.949,0.9505,0.9492,0.9495,0.9494,0.9494,0.9495,0.9476,0.9505,0.9553,0.9558,0.9496,0.9495,0.9495,0,0.9501,0.9509,0.9523,0.9524,0.9521,0.9527,0.9526,0.9525,0.9528,0.9531,0.9533,0.9536,0.9538,0.9542,0.9533,0.9522,0.9549,0.9531,0.9547,0.9547,0.9553,0.9553,0.9602,0.9555,0.9555,0.9555,0.9555,0,0.9534,0.9547,0.9537,0.9545,0.9559,0.9549,0.9564,0.9561,0.956,0.9568,0.9555,0.9563,0.9551,0.9558,0.9551,0.9565,0.9566,0.9563,0.9561,0.9565,0.9565,0.9566,0.9564,0.9556,0.9556,0.9555,0.9555,0,0.9571,0.9564,0.9578,0.9575,0.9574,0.9585,0.9582,0.959,0.9586,0.9596,0.9598,0.959,0.9598,0.959,0.9596,0.9592,0.961,0.9605,0.9611,0.9609,0.9626,0.9624,0.9677,0.9684,0.9632,0.9633,0.9633,0,0.9592,0.9602,0.9601,0.9605,0.9605,0.9613,0.9616,0.9607,0.9611,0.9613,0.9621,0.9627,0.9631,0.9644,0.9639,0.9644,0.9639,0.9658,0.964,0.9643,0.964,0.964,0.9641,0.9661,0.9662,0.9662,0.9663,0,0.9632,0.9629,0.9635,0.964,0.9645,0.9648,0.9651,0.9655,0.9646,0.9652,0.9659,0.9663,0.9671,0.9677,0.9681,0.968,0.967,0.9669,0.9673,0.9676,0.9679,0.9678,0.9621,0.9667,0.9667,0.9666,0.9666,0.9666,0.9662,0.9671,0.9672,0.9679,0.968,0.9683,0.9691,0.9688,0.9694,0.97,0.9694,0.9704,0.9705,0.971,0.971,0.9718,0.971,0.9715,0.9717,0.9718,0.9721,0.9678,0.9718,0.9718,0.9718,0.9718,0.9718,0,0.9702,0.9702,0.9709,0.9714,0.972,0.9711,0.9713,0.9719,0.9728,0.973,0.9735,0.9745,0.9752,0.9748,0.9754,0.9761,0.9757,0.9763,0.9763,0.9763,0.9727,0.9724,0.9767,0.9767,0.9767,0.9767,0.9767,0.9767,0.9723,0.9737,0.9735,0.975,0.975,0.976,0.9763,0.9766,0.9767,0.9779,0.9785,0.9783,0.9783,0.979,0.9796,0.9795,0.9798,0.9806,0.9803,0.977,0.9765,0.9761,0.9757,0.9807,0.9807,0.9838,0.9838,0.9839]},{"header":{"parameterUnit":"m.s-1","parameterCategory":1,"la1":30.2991,"la2":30.254,"lo1":-89.0895,"lo2":-89.0444,"dy":0.0017,"dx":0.0017,"nx":28,"ny":28,"refTime":"2025-12-04T09:00:00:Z","depth":0,"parameterNumber":3,"parameterNumberName":"V-component_of_WINDS"},"data":[0,0,0,0,0,0,0,0,0,0,0,0,0,0,0,0,0,0,0,0,0,0,0,0,0,0,0,0,0,0,0,0,0,0,0,0,0,0,0,0,0,0,0,0,0,0,0,0,0,0,0,0,0,0,0,0,0,0,-5.2869,-5.287,0,-5.3039,-5.3041,-5.3043,-5.3032,-5.303,-5.3027,-5.3025,-5.3194,-5.3201,-5.3208,0,0,0,0,0,0,0,0,0,0,0,0,0,-5.2528,-5.2535,-5.2868,-5.2871,-5.2873,-5.3039,-5.3041,-5.3044,-5.3033,-5.3029,-5.3026,-5.3024,-5.3192,-5.32,-5.3208,0,0,0,0,0,0,0,0,0,0,0,0,0,-5.2685,-5.2537,-5.2868,-5.2887,-5.2891,-5.3039,-5.3041,-5.3044,-5.3033,-5.3029,-5.3026,-5.3022,-5.3189,-5.3199,-5.3209,-5.3348,0,0,-5.3241,-5.3245,0,0,0,0,0,0,0,0,-5.2676,-5.2698,-5.2882,-5.2886,-5.289,-5.3011,-5.2984,-5.3146,-5.3034,-5.2979,-5.3025,-5.302,-5.3136,-5.315,-5.319,-5.3355,-5.3363,-5.3242,-5.3248,-5.3252,-5.3255,0,0,0,0,0,0,0,-5.2665,-5.269,-5.2936,-5.2885,-5.289,-5.2886,-5.2904,-5.3014,-5.3076,-5.2983,-5.2983,-5.3004,-5.3137,-5.3181,-5.3194,-5.3365,-5.3241,-5.3251,-5.3257,-5.3261,-5.3653,-5.3657,0,0,0,0,0,0,-5.2651,-5.2681,-5.293,-5.2941,-5.2772,-5.2895,-5.2916,-5.2976,-5.3075,-5.3087,-5.3007,-5.3003,-5.3165,-5.3182,-5.32,-5.3369,-5.3252,-5.3262,-5.3268,-5.3649,-5.3654,-5.3659,0,0,0,0,0,0,-5.2644,-5.2673,-5.2924,-5.2811,-5.2843,-5.2905,-5.2973,-5.2981,-5.3024,-5.3093,-5.3103,-5.304,-5.3163,-5.3186,-5.3312,-5.3375,-5.3266,-5.3276,-5.3644,-5.365,-5.3656,-5.3708,0,0,0,0,0,0,-5.2634,-5.2671,-5.2725,-5.2813,-5.2849,-5.3034,-5.2977,-5.2987,-5.3043,-5.3039,-5.3126,-5.3137,-5.3161,-5.3296,-5.3322,-5.3387,-5.3284,-5.3638,-5.3647,-5.3654,-5.3701,-5.3716,-5.3728,0,0,0,0,0,-5.2622,-5.2731,-5.2728,-5.2758,-5.2918,-5.3037,-5.3058,-5.3085,-5.3048,-5.3102,-5.3146,-5.3135,-5.3364,-5.3309,-5.3338,-5.3407,-5.3634,-5.3644,-5.3654,-5.3695,-5.3713,-5.3728,0,0,0,0,0,0,-5.2647,-5.2743,-5.274,-5.2881,-5.2952,-5.3035,-5.3105,-5.3103,-5.3183,-5.3176,-5.3205,-5.3225,-5.3351,-5.3392,-5.3329,-5.3547,-5.3494,-5.351,-5.3516,-5.3533,-5.3546,-5.3534,-5.3292,0,0,0,0,0,-5.267,-5.276,-5.2838,-5.2955,-5.2991,-5.3042,-5.3095,-5.311,-5.3183,-5.3212,-5.3265,-5.3335,-5.3423,-5.348,-5.3565,-5.3707,-5.3726,-5.3768,-5.3782,-5.3793,-5.3806,-5.3885,-5.3905,-5.369,-5.369,-5.369,0,0,-5.2716,-5.278,-5.2835,-5.2962,-5.3018,-5.311,-5.3067,-5.3166,-5.3234,-5.3226,-5.335,-5.3391,-5.347,-5.3606,-5.3667,-5.3643,-5.3869,-5.3805,-5.3813,-5.3821,-5.3897,-5.3917,-5.3935,-5.3697,-5.3695,-5.3694,0,0,-5.2848,-5.2905,-5.301,-5.3068,-5.3154,-5.3188,-5.3213,-5.3297,-5.3325,-5.345,-5.3446,-5.3527,-5.3677,-5.3735,-5.3784,-5.3939,-5.3931,-5.3965,-5.4036,-5.4112,-5.4129,-5.4144,-5.42,-5.422,-5.3978,-5.3978,-5.3978,0,-5.2895,-5.3035,-5.3063,-5.3164,-5.322,-5.322,-5.3325,-5.3379,-5.3488,-5.3526,-5.3497,-5.3688,-5.3741,-5.389,-5.3928,-5.3968,-5.3997,-5.3956,-5.4125,-5.414,-5.4155,-5.4208,-5.4229,-5.3982,-5.3982,-5.3981,-5.3981,0,-5.3088,-5.3186,-5.3259,-5.3367,-5.3431,-5.3534,-5.3577,-5.3638,-5.3647,-5.3683,-5.381,-5.3874,-5.3973,-5.4009,-5.4018,-5.4159,-5.4142,-5.4119,-5.4066,-5.4178,-5.4229,-5.425,-5.3987,-5.3986,-5.3985,-5.3984,0,0,-5.3241,-5.3364,-5.3391,-5.3441,-5.3536,-5.3611,-5.3713,-5.3811,-5.3864,-5.3938,-5.4025,-5.4153,-5.4133,-5.4188,-5.4204,-5.4271,-5.4391,-5.424,-5.4242,-5.4266,-5.4551,-5.4568,-5.4592,-5.4386,-5.439,-5.4393,-5.4544,0,-5.3384,-5.3567,-5.3596,-5.3757,-5.3847,-5.3848,-5.3937,-5.4005,-5.4041,-5.4122,-5.4161,-5.4252,-5.4218,-5.4252,-5.4318,-5.4362,-5.4448,-5.4351,-5.4465,-5.4469,-5.4447,-5.4618,-5.4637,-5.4776,-5.4564,-5.4568,-5.457,0,-5.3575,-5.3657,-5.3828,-5.3913,-5.3951,-5.4031,-5.4124,-5.4201,-5.4278,-5.4299,-5.4362,-5.437,-5.4475,-5.4418,-5.4563,-5.4496,-5.4545,-5.4573,-5.4579,-5.4591,-5.4527,-5.4635,-5.4821,-5.4843,-5.4602,-5.4599,-5.4597,0,-5.367,-5.3824,-5.3946,-5.3988,-5.4089,-5.4146,-5.419,-5.4263,-5.4321,-5.4401,-5.4438,-5.4529,-5.4579,-5.4648,-5.468,-5.4635,-5.4822,-5.4768,-5.4843,-5.4842,-5.4883,-5.488,-5.508,-5.4912,-5.4912,-5.4912,-5.4911,0,-5.3827,-5.3931,-5.3991,-5.4066,-5.4183,-5.4214,-5.4328,-5.4371,-5.4436,-5.4519,-5.4524,-5.4601,-5.4638,-5.472,-5.4745,-5.4862,-5.4884,-5.4903,-5.4909,-5.4904,-5.4901,-5.4936,-5.4928,-5.4917,-5.4916,-5.4915,-5.4914,0,-5.3954,-5.3998,-5.4131,-5.4217,-5.4241,-5.4323,-5.4396,-5.4469,-5.4505,-5.4609,-5.4635,-5.4692,-5.4789,-5.4828,-5.4946,-5.4962,-5.5097,-5.5094,-5.5072,-5.5074,-5.5147,-5.514,-5.5377,-5.541,-5.522,-5.5221,-5.5223,0,-5.4051,-5.4132,-5.4227,-5.4284,-5.4331,-5.4422,-5.4482,-5.4515,-5.4577,-5.4671,-5.4732,-5.4829,-5.4909,-5.5064,-5.5115,-5.5205,-5.5205,-5.5282,-5.5219,-5.5211,-5.5208,-5.5203,-5.5211,-5.5294,-5.5296,-5.5297,-5.5299,0,-5.422,-5.4238,-5.4324,-5.4419,-5.4491,-5.4566,-5.4639,-5.4685,-5.473,-5.4798,-5.4899,-5.4961,-5.5084,-5.518,-5.5274,-5.5318,-5.5316,-5.5318,-5.5341,-5.5336,-5.532,-5.5331,-5.5105,-5.5313,-5.5311,-5.531,-5.5309,-5.5309,-5.4336,-5.4408,-5.4487,-5.4583,-5.4643,-5.4711,-5.4784,-5.4831,-5.4916,-5.502,-5.5034,-5.5142,-5.5216,-5.5342,-5.539,-5.5474,-5.5454,-5.5486,-5.5494,-5.5502,-5.5507,-5.5307,-5.5491,-5.549,-5.549,-5.549,-5.5489,0,-5.4506,-5.4557,-5.4645,-5.4749,-5.4825,-5.4818,-5.4899,-5.4963,-5.5059,-5.5129,-5.5208,-5.5324,-5.5418,-5.5477,-5.5571,-5.5627,-5.5629,-5.5651,-5.5647,-5.5658,-5.5519,-5.5491,-5.5648,-5.5648,-5.5648,-5.5648,-5.5648,-5.5648,-5.4603,-5.4726,-5.4753,-5.4905,-5.4955,-5.5063,-5.511,-5.5173,-5.523,-5.536,-5.5439,-5.5477,-5.5543,-5.5642,-5.5728,-5.5742,-5.5777,-5.5801,-5.5814,-5.5684,-5.5667,-5.5652,-5.5625,-5.5808,-5.5808,-5.5945,-5.5947,-5.5948]}]]